Vorticity
14 13 11 11 10 9 8 7 7 7 7 7 6 6 6 6 7 8 9 8 8 7 7 8 9 8 8 8 8 8 8 7 7 7 8 8 7 7 7 7 7 7 7 7 7 7 6 5 4 4 4 4 4 5 5 5 5 5 5 6 5 5 4 4 4 4 4 5 5
14 13 12 11 10 9 8 7 7 7 7 7 6 6 6 6 7 8 9 9 9 8 8 8 8 8 8 8 8 8 8 7 7 7 7 8 7 7 7 7 7 7 7 7 7 7 6 5 5 4 4 4 4 5 5 5 5 5 5 5 4 4 4 4 4 3 3 3 3
13 13 12 11 10 9 8 7 7 7 7 7 6 6 6 6 8 9 10 10 9 9 8 7 7 7 7 7 8 8 8 7 7 6 7 7 7 7 7 7 7 7 8 7 7 7 6 6 5 4 4 4 4 4 4 4 5 5 5 4 4 4 4 4 3 3 3 2 2
13 13 12 11 10 9 8 8 8 7 7 7 6 5 5 6 8 9 10 10 10 9 8 7 7 7 7 7 8 8 8 8 7 6 6 7 7 7 7 7 7 7 7 8 7 7 6 5 5 4 4 4 4 4 4 4 4 4 4 4 3 4 4 4 4 3 3 3 2
13 12 11 10 10 9 8 8 8 8 7 7 6 5 5 6 7 9 10 10 10 8 8 7 7 6 7 7 7 7 7 7 7 6 6 6 7 7 7 7 7 7 7 8 7 7 6 5 4 4 4 3 3 4 3 3 3 4 3 3 3 4 4 4 4 4 4 4 4
12 12 11 10 10 9 9 8 8 8 7 7 6 5 4 5 7 8 10 10 10 9 8 7 6 6 6 7 7 7 7 6 6 6 6 6 6 6 7 8 8 8 8 8 7 7 6 5 4 4 4 3 3 3 3 3 3 3 3 2 2 2 3 3 3 3 4 4 4
11 11 10 10 9 9 9 9 8 8 7 6 5 4 4 5 6 8 10 11 10 9 8 6 6 6 6 7 7 7 6 6 6 6 6 6 6 6 7 7 7 8 8 8 7 7 6 5 4 4 3 3 3 3 3 3 3 3 2 2 2 1 1 2 2 2 2 3 3
10 10 10 9 9 9 9 9 8 8 7 6 6 5 4 5 7 9 11 12 11 10 8 6 6 6 6 7 7 6 6 6 6 6 6 6 5 6 6 7 7 7 8 8 7 6 6 5 4 4 4 4 4 4 3 3 3 3 2 2 1 1 1 1 1 1 1 2 1
9 9 8 8 8 9 9 9 8 8 7 6 6 6 5 6 7 9 11 12 11 10 8 7 6 6 6 7 6 6 6 5 5 5 5 5 5 5 6 6 7 7 7 7 7 6 5 4 4 4 4 4 4 4 3 3 3 3 3 2 2 1 1 1 1 1 1 2 1
9 8 8 7 8 8 8 8 8 8 7 7 6 6 6 6 7 9 10 12 11 11 10 8 6 6 6 7 6 6 5 5 5 5 5 5 5 5 6 6 7 7 7 7 7 6 5 4 4 4 3 3 3 3 3 3 3 3 3 3 3 2 2 2 2 2 2 2 2
8 7 7 7 7 7 8 8 8 8 7 7 7 6 6 6 7 8 10 11 12 11 10 8 6 6 6 6 6 6 5 4 4 4 4 4 5 5 6 6 7 7 7 7 7 6 6 4 4 3 3 3 3 3 3 3 4 4 4 4 4 3 3 3 3 3 3 3 3
7 7 6 6 6 6 7 7 7 7 7 7 6 6 6 6 6 7 9 11 12 11 10 8 7 6 6 6 6 6 5 4 4 4 4 4 4 5 6 7 7 7 7 7 7 6 6 5 4 3 3 3 3 3 3 3 4 4 4 4 4 4 4 4 4 4 4 4 4
7 6 6 6 6 6 6 6 6 6 6 6 6 6 5 5 6 7 8 10 12 11 10 9 7 6 6 6 6 6 5 4 4 3 3 3 4 5 6 7 7 7 7 7 7 7 6 5 4 4 4 3 3 3 3 3 3 4 4 4 4 4 4 4 4 4 4 5 5
7 7 6 6 5 5 5 5 5 5 5 5 5 5 5 5 5 6 7 10 12 12 10 8 7 6 6 6 6 6 5 4 3 3 3 3 4 5 6 7 7 7 7 7 7 7 6 6 5 4 4 4 4 4 4 3 3 3 4 4 4 4 4 5 5 5 5 5 5
8 7 6 6 6 5 5 4 4 4 4 4 4 5 5 5 5 5 7 9 12 12 11 9 7 6 6 6 6 5 4 4 3 3 2 3 4 5 6 6 7 7 7 7 7 6 6 6 5 5 4 4 4 4 4 4 4 4 4 4 4 4 5 5 5 5 5 5 4
9 8 7 7 6 6 5 5 4 3 3 3 4 4 5 5 4 5 6 9 11 12 11 9 7 6 6 6 6 5 4 3 3 2 2 3 4 5 6 7 7 7 7 7 7 6 6 6 5 5 4 4 4 4 4 4 4 4 4 4 5 5 5 5 5 5 4 4 4
10 10 9 8 8 7 6 6 5 4 3 3 3 4 4 4 4 5 6 8 10 11 11 9 7 6 6 6 6 5 4 3 2 2 2 3 4 6 6 7 7 7 7 7 7 6 6 6 5 5 5 4 4 4 5 5 5 5 5 5 5 5 5 5 5 4 4 4 3
12 11 10 9 9 8 7 7 6 5 4 4 4 4 5 5 5 5 6 7 9 11 11 10 7 6 6 6 6 6 5 4 2 2 2 3 4 6 7 7 7 7 7 7 7 6 6 5 5 5 5 5 5 5 5 5 5 5 5 5 5 4 4 4 4 4 4 3 3
12 11 11 10 9 8 8 7 7 6 6 5 5 5 6 6 6 6 6 7 10 12 12 10 8 6 6 6 6 6 5 4 3 2 2 3 4 5 6 7 7 7 6 6 6 6 5 5 5 5 5 5 5 5 5 5 5 5 4 4 4 4 4 4 4 3 3 3 3
11 11 10 9 8 8 7 7 7 7 6 6 7 7 7 8 8 7 7 7 10 12 13 11 8 6 6 6 6 6 5 4 3 3 2 3 4 5 6 6 6 6 6 6 5 5 5 4 4 4 4 5 5 5 5 5 5 4 4 4 3 3 3 3 3 3 3 3 2
10 10 9 8 7 7 7 7 7 7 7 8 8 9 10 10 10 9 8 7 10 12 13 12 8 6 6 6 7 6 5 4 4 3 3 3 4 5 5 6 6 5 5 4 4 4 4 4 4 4 4 4 4 4 4 4 4 4 3 3 3 2 2 3 3 3 3 2 2
9 8 7 7 6 6 6 6 7 7 8 9 10 12 13 13 13 11 9 9 10 12 13 12 9 7 6 6 7 7 6 4 3 3 3 3 4 4 4 5 5 4 4 4 3 3 3 3 4 4 4 4 4 4 4 3 3 3 2 2 2 2 2 2 3 3 3 2 2
7 7 6 6 6 6 7 7 7 8 9 10 13 15 16 17 15 12 10 9 10 12 13 12 9 8 7 7 8 7 6 4 3 3 3 3 3 4 4 4 4 4 3 3 2 2 2 3 3 4 4 4 4 3 3 3 2 2 2 2 1 1 1 2 2 3 2 2 1
6 6 6 6 6 6 7 7 8 8 10 12 15 18 20 20 16 13 10 8 10 11 12 12 10 8 7 8 8 7 6 4 3 3 3 3 3 4 4 3 3 3 2 2 2 2 2 2 3 3 4 4 4 3 3 2 2 2 2 1 1 1 1 1 2 2 2 1 0
7 6 6 6 6 7 7 7 8 9 10 13 17 21 23 22 17 13 9 7 9 11 12 11 9 8 7 8 8 7 6 4 3 3 3 3 4 3 3 2 2 2 2 2 2 2 2 2 3 3 3 3 3 3 2 2 2 2 2 1 1 0 0 1 2 2 1 0 -1
7 7 7 7 7 7 8 8 8 10 12 14 19 23 26 24 18 13 8 7 9 11 12 11 9 8 7 7 7 7 6 4 3 3 3 3 3 3 3 2 2 2 2 2 2 3 3 3 3 3 3 3 2 2 2 1 1 1 1 0 0 0 0 0 1 1 1 -0 -1
7 7 7 7 7 8 8 9 10 11 13 15 20 25 27 25 19 13 9 7 9 11 12 11 9 7 7 7 7 6 5 4 3 3 2 2 2 2 2 1 1 1 2 2 3 3 3 3 3 3 3 3 2 2 1 0 -0 -0 -0 -0 -0 0 0 1 1 1 0 -1 -2
8 7 7 7 8 9 9 10 11 12 14 17 22 27 29 26 19 13 8 7 9 11 12 11 8 7 6 7 7 6 5 3 3 3 3 2 2 1 0 0 0 1 2 2 3 3 3 3 3 3 3 3 2 2 1 0 -0 -1 -1 -1 -1 -0 0 1 1 1 0 -1 -2
8 8 8 8 9 10 10 11 12 13 15 18 24 29 30 26 18 11 7 6 9 11 11 9 8 7 7 7 6 6 4 3 2 2 2 2 2 1 1 0 0 1 2 2 2 2 2 2 2 2 2 2 2 1 1 0 0 -0 -1 -1 -0 0 0 1 1 1 0 -1 -2
8 8 8 10 10 11 12 12 12 14 17 21 27 30 30 24 16 10 6 6 10 11 11 8 7 7 7 7 6 5 4 3 2 2 2 2 2 2 1 1 1 2 2 2 2 2 2 1 2 2 2 1 1 0 0 -0 -0 -0 -1 -1 -0 0 1 1 1 1 0 -0 -1
9 9 10 11 12 12 12 12 13 15 19 24 29 30 28 22 14 8 6 7 10 11 11 10 8 7 7 6 6 5 4 3 3 2 2 2 1 1 1 2 2 2 2 2 2 2 1 1 1 1 1 1 1 0 -0 -0 -1 -1 -1 -1 -0 0 1 1 1 1 0 -0 -1
10 10 10 12 12 13 13 13 15 17 21 26 30 30 27 19 11 6 6 8 11 12 12 10 8 7 6 6 6 5 4 3 3 2 2 2 1 1 1 2 2 3 3 3 2 2 2 1 1 2 2 2 1 1 0 0 0 0 0 0 1 1 1 1 1 1 0 0 -0
11 11 12 12 13 13 14 14 16 20 24 29 31 29 23 15 9 6 6 9 12 13 12 10 8 6 6 6 6 5 5 4 3 2 2 2 1 1 2 2 2 3 3 3 2 2 2 2 2 2 2 2 2 2 2 2 2 1 1 2 2 2 1 1 1 1 0 0 -0
12 12 12 13 13 14 15 16 19 23 27 30 30 26 19 11 6 5 6 9 13 13 12 10 8 6 6 6 6 5 4 4 3 2 2 2 2 2 2 2 2 3 3 3 3 2 2 2 2 2 2 3 3 3 2 2 2 2 2 2 2 2 1 1 1 1 0 0 -1
13 13 13 14 14 15 16 18 22 26 29 30 27 22 15 8 5 4 6 10 13 14 13 11 8 6 6 6 6 5 4 4 3 3 2 2 2 2 2 2 2 2 2 3 3 2 2 2 2 2 2 3 3 3 3 3 3 3 3 2 2 2 1 1 1 1 1 0 -0
13 14 14 15 16 17 18 21 24 27 28 28 23 17 11 6 4 5 8 11 14 15 14 10 8 6 6 5 5 5 4 4 3 2 2 2 2 2 2 1 2 2 2 2 2 2 2 2 2 2 3 3 3 3 3 3 3 3 3 3 2 2 2 2 2 1 1 0 0
14 15 16 16 17 18 20 23 26 27 27 24 18 13 7 4 5 6 9 13 15 16 14 11 8 6 5 4 4 4 4 4 3 2 2 2 2 2 2 2 2 2 2 2 2 2 2 2 2 2 3 4 4 4 3 3 3 3 3 3 3 3 2 2 2 1 1 1 0
16 17 17 18 19 20 22 24 26 26 23 19 13 8 5 4 6 8 10 14 16 16 15 12 9 7 5 4 4 3 3 3 2 2 2 2 2 2 2 3 3 3 3 3 3 3 2 2 3 3 4 4 4 4 4 4 4 4 4 4 3 3 3 2 2 2 1 1 1
18 18 19 20 21 22 24 25 24 22 18 13 8 5 4 5 7 10 12 14 16 16 15 13 9 6 4 3 3 3 2 2 2 2 2 2 2 3 3 4 4 4 4 4 3 3 3 3 4 4 5 5 5 4 4 4 4 4 4 4 4 3 3 3 2 2 2 2 1
20 20 21 21 22 23 23 23 21 18 13 8 5 4 4 6 9 11 13 14 16 16 15 13 10 7 4 3 2 2 2 2 2 2 2 2 2 3 3 4 4 4 4 4 4 4 4 4 5 5 6 6 5 5 5 5 4 4 4 4 3 3 2 2 2 2 2 2 2
20 21 21 22 22 22 22 20 17 13 9 5 4 4 5 7 10 11 13 14 15 15 15 13 10 7 5 3 2 2 2 2 2 2 2 2 2 2 3 3 3 4 4 4 4 4 4 5 6 6 6 6 5 5 4 4 4 4 4 3 3 2 2 2 2 2 2 2 2
Height
3078 3080 3082 3085 3087 3089 3091 3093 3095 3097 3099 3101 3103 3104 3106 3108 3109 3111 3113 3114 3116 3118 3120 3122 3124 3125 3126 3127 3129 3130 3131 3132 3133 3134 3135 3136 3137 3138 3139 3140 3141 3142 3143 3144 3145 3146 3147 3148 3149 3149 3150 3151 3151 3152 3153 3153 3154 3154 3155 3155 3156 3156 3157 3157 3158 3158 3159 3159 3159
3074 3077 3079 3082 3084 3086 3088 3090 3092 3094 3096 3099 3100 3102 3104 3105 3107 3109 3110 3112 3114 3116 3118 3120 3122 3123 3124 3125 3127 3128 3129 3130 3131 3132 3133 3134 3135 3136 3137 3139 3139 3141 3142 3143 3144 3145 3146 3147 3148 3148 3149 3150 3150 3151 3152 3152 3153 3154 3154 3155 3155 3156 3156 3157 3157 3158 3158 3158 3159
3071 3074 3076 3079 3081 3083 3084 3087 3089 3091 3094 3096 3098 3100 3102 3103 3105 3107 3109 3110 3113 3114 3116 3118 3119 3121 3122 3124 3125 3126 3127 3129 3129 3131 3132 3133 3134 3134 3136 3137 3138 3139 3140 3141 3142 3144 3144 3145 3146 3147 3148 3149 3149 3150 3151 3151 3152 3153 3153 3154 3154 3155 3155 3156 3156 3157 3157 3158 3158
3069 3071 3073 3075 3077 3079 3081 3084 3086 3089 3091 3094 3095 3097 3099 3101 3103 3104 3107 3109 3110 3112 3114 3115 3117 3119 3120 3121 3123 3124 3125 3127 3128 3129 3130 3131 3132 3133 3134 3135 3136 3138 3139 3140 3141 3142 3143 3144 3145 3146 3146 3147 3148 3149 3149 3150 3151 3152 3152 3153 3154 3154 3154 3155 3155 3156 3156 3157 3157
3065 3067 3070 3072 3074 3077 3079 3082 3084 3087 3089 3091 3093 3095 3096 3098 3100 3102 3104 3106 3107 3109 3111 3113 3115 3116 3118 3119 3121 3122 3123 3124 3125 3127 3128 3129 3130 3131 3132 3134 3135 3136 3137 3138 3139 3140 3141 3142 3143 3144 3145 3146 3147 3147 3148 3149 3150 3150 3151 3152 3152 3153 3154 3154 3154 3155 3156 3156 3156
3062 3064 3067 3070 3073 3075 3078 3080 3082 3084 3086 3088 3090 3092 3094 3095 3097 3099 3101 3103 3105 3107 3109 3111 3113 3114 3115 3117 3119 3120 3121 3122 3123 3124 3126 3127 3128 3129 3130 3132 3133 3134 3135 3136 3137 3139 3139 3140 3141 3142 3143 3144 3145 3146 3147 3148 3149 3149 3150 3151 3151 3152 3153 3153 3154 3154 3154 3155 3156
3059 3062 3065 3067 3070 3072 3074 3077 3079 3081 3083 3085 3087 3089 3091 3093 3095 3097 3099 3100 3103 3104 3106 3108 3110 3111 3113 3114 3116 3117 3119 3120 3121 3122 3124 3125 3126 3127 3129 3130 3131 3132 3134 3134 3136 3137 3138 3139 3140 3141 3142 3143 3144 3144 3145 3146 3147 3148 3149 3149 3150 3151 3151 3152 3153 3153 3154 3154 3155
3057 3060 3062 3065 3067 3069 3072 3074 3076 3078 3079 3082 3084 3086 3089 3091 3093 3095 3097 3098 3100 3101 3103 3105 3107 3109 3110 3112 3114 3115 3116 3118 3119 3120 3121 3123 3124 3125 3127 3128 3129 3130 3132 3133 3134 3135 3136 3137 3138 3139 3140 3141 3142 3143 3144 3145 3146 3147 3147 3148 3149 3149 3150 3151 3151 3152 3152 3153 3154
3054 3056 3059 3062 3064 3067 3069 3071 3073 3074 3077 3079 3081 3084 3086 3089 3090 3092 3094 3095 3097 3099 3101 3103 3105 3107 3109 3110 3111 3113 3114 3116 3117 3118 3119 3121 3122 3123 3125 3126 3127 3129 3129 3131 3132 3133 3134 3135 3137 3138 3139 3140 3141 3142 3143 3143 3144 3145 3146 3147 3147 3148 3149 3149 3150 3150 3151 3152 3152
3050 3053 3056 3059 3061 3064 3066 3068 3070 3072 3074 3077 3079 3082 3084 3086 3088 3089 3091 3093 3095 3097 3099 3100 3102 3104 3106 3108 3109 3111 3112 3114 3115 3116 3118 3119 3120 3121 3123 3124 3125 3127 3128 3129 3130 3131 3133 3134 3135 3136 3137 3138 3139 3140 3141 3142 3143 3144 3144 3145 3146 3147 3147 3148 3148 3149 3149 3150 3150
3048 3050 3053 3055 3058 3060 3063 3064 3067 3069 3071 3074 3076 3079 3080 3083 3084 3086 3089 3090 3092 3094 3096 3098 3100 3102 3104 3105 3107 3108 3110 3111 3113 3114 3115 3117 3118 3119 3121 3122 3124 3125 3126 3127 3128 3129 3131 3132 3133 3134 3135 3136 3137 3138 3139 3140 3141 3142 3143 3144 3144 3145 3146 3146 3147 3147 3148 3149 3149
3045 3048 3050 3053 3055 3058 3059 3061 3063 3066 3068 3070 3073 3075 3077 3079 3081 3084 3085 3087 3089 3091 3094 3095 3097 3099 3101 3103 3104 3106 3108 3109 3110 3112 3113 3115 3116 3118 3119 3120 3122 3123 3124 3125 3126 3128 3129 3130 3132 3133 3134 3135 3136 3137 3138 3139 3139 3140 3141 3142 3143 3143 3144 3144 3145 3146 3146 3147 3147
3042 3045 3047 3050 3052 3054 3056 3058 3060 3062 3064 3067 3069 3072 3074 3076 3079 3080 3082 3084 3086 3089 3091 3093 3095 3097 3099 3100 3102 3104 3105 3107 3108 3109 3111 3113 3114 3115 3117 3118 3119 3121 3122 3123 3124 3126 3127 3129 3130 3131 3132 3133 3134 3135 3136 3137 3138 3139 3139 3140 3141 3141 3142 3143 3144 3144 3145 3145 3146
3039 3041 3044 3046 3048 3050 3053 3054 3057 3059 3061 3064 3066 3069 3071 3073 3075 3077 3079 3082 3084 3086 3088 3090 3092 3094 3096 3098 3099 3101 3103 3104 3106 3107 3109 3110 3112 3113 3115 3116 3117 3119 3120 3121 3122 3124 3125 3127 3128 3129 3130 3131 3132 3133 3134 3135 3136 3137 3138 3138 3139 3139 3140 3141 3142 3142 3143 3144 3144
3036 3038 3040 3042 3044 3047 3049 3051 3054 3056 3058 3060 3063 3066 3068 3070 3072 3074 3076 3079 3081 3083 3085 3087 3089 3091 3093 3095 3097 3099 3100 3102 3104 3105 3106 3108 3109 3111 3112 3114 3115 3116 3118 3119 3120 3122 3123 3125 3126 3127 3128 3129 3130 3131 3132 3133 3134 3135 3136 3136 3137 3138 3138 3139 3140 3140 3141 3142 3142
3032 3034 3036 3039 3040 3043 3045 3048 3050 3053 3055 3057 3060 3063 3065 3067 3069 3071 3074 3076 3078 3080 3082 3084 3086 3088 3090 3092 3094 3096 3098 3099 3101 3103 3104 3105 3107 3109 3110 3111 3113 3114 3116 3117 3119 3120 3121 3123 3124 3125 3126 3127 3128 3129 3130 3131 3132 3133 3134 3134 3135 3136 3136 3137 3138 3139 3139 3139 3140
3028 3030 3032 3034 3037 3039 3042 3044 3047 3049 3052 3054 3057 3059 3061 3064 3066 3068 3070 3073 3075 3077 3079 3081 3083 3085 3087 3089 3091 3093 3094 3096 3098 3100 3101 3103 3104 3106 3108 3109 3111 3112 3114 3115 3117 3118 3119 3121 3122 3123 3124 3125 3126 3127 3128 3129 3130 3131 3131 3132 3133 3134 3134 3135 3136 3136 3137 3137 3138
3024 3027 3029 3031 3033 3036 3038 3041 3044 3046 3049 3051 3054 3056 3058 3060 3063 3065 3067 3069 3072 3074 3076 3078 3080 3082 3084 3086 3088 3089 3091 3093 3095 3097 3099 3101 3103 3104 3106 3108 3109 3110 3112 3113 3115 3116 3118 3119 3120 3121 3122 3123 3124 3125 3126 3127 3128 3128 3129 3130 3131 3131 3132 3133 3133 3134 3134 3135 3135
3021 3023 3025 3028 3030 3033 3035 3038 3040 3043 3046 3048 3050 3053 3055 3057 3059 3062 3064 3066 3069 3071 3073 3075 3077 3079 3081 3083 3085 3087 3089 3090 3093 3095 3097 3099 3101 3102 3104 3106 3107 3109 3110 3111 3113 3114 3115 3117 3118 3119 3120 3121 3122 3123 3124 3124 3125 3126 3127 3128 3128 3129 3130 3130 3131 3131 3132 3133 3133
3018 3020 3022 3024 3027 3029 3032 3034 3037 3040 3043 3045 3047 3049 3052 3054 3056 3059 3061 3063 3065 3068 3070 3072 3074 3076 3078 3080 3082 3084 3086 3088 3091 3093 3095 3097 3099 3100 3102 3104 3105 3106 3108 3109 3110 3112 3113 3114 3115 3116 3118 3119 3119 3120 3121 3122 3123 3124 3124 3125 3126 3127 3127 3128 3128 3129 3129 3130 3130
3015 3017 3019 3022 3024 3027 3029 3031 3034 3037 3039 3042 3044 3046 3049 3051 3053 3055 3058 3060 3063 3065 3067 3069 3071 3073 3075 3077 3079 3082 3084 3086 3089 3090 3092 3094 3096 3098 3099 3101 3103 3104 3105 3107 3108 3109 3111 3112 3113 3114 3115 3116 3117 3118 3119 3120 3121 3122 3122 3123 3124 3124 3125 3125 3126 3126 3127 3128 3128
3012 3014 3017 3019 3022 3024 3026 3029 3031 3033 3035 3038 3040 3043 3045 3047 3049 3052 3055 3058 3060 3062 3064 3066 3068 3070 3073 3075 3077 3079 3082 3084 3086 3088 3090 3092 3094 3096 3097 3099 3100 3102 3103 3104 3106 3107 3108 3109 3111 3112 3113 3114 3115 3116 3117 3118 3119 3119 3120 3121 3121 3122 3122 3123 3124 3124 3125 3125 3126
3009 3011 3014 3016 3019 3021 3023 3025 3027 3029 3031 3034 3036 3039 3041 3044 3046 3049 3052 3054 3057 3059 3061 3064 3066 3068 3070 3073 3075 3077 3079 3081 3084 3085 3088 3089 3091 3093 3095 3096 3098 3099 3100 3102 3103 3104 3106 3107 3108 3109 3110 3112 3113 3114 3114 3115 3116 3117 3118 3118 3119 3119 3120 3120 3121 3122 3123 3123 3124
3006 3008 3010 3013 3015 3017 3019 3020 3022 3024 3027 3029 3032 3035 3037 3040 3043 3046 3048 3051 3053 3056 3059 3061 3063 3066 3068 3071 3073 3075 3077 3079 3081 3083 3085 3087 3089 3090 3092 3094 3095 3097 3098 3099 3101 3102 3104 3105 3106 3107 3108 3109 3110 3111 3112 3113 3114 3114 3115 3116 3116 3117 3118 3118 3119 3120 3120 3121 3121
3002 3004 3006 3009 3010 3013 3014 3016 3018 3020 3023 3025 3028 3031 3034 3036 3039 3042 3044 3047 3050 3053 3056 3058 3061 3063 3065 3068 3070 3072 3074 3076 3078 3080 3082 3084 3086 3088 3089 3091 3093 3094 3096 3097 3099 3100 3101 3103 3104 3105 3106 3107 3108 3109 3109 3110 3111 3112 3113 3114 3114 3114 3115 3116 3117 3118 3118 3119 3119
2998 3000 3002 3004 3007 3009 3010 3012 3014 3016 3019 3022 3024 3027 3030 3033 3035 3038 3041 3044 3047 3050 3053 3055 3058 3060 3062 3064 3066 3069 3071 3073 3075 3077 3079 3081 3083 3085 3087 3089 3090 3092 3093 3095 3096 3098 3099 3100 3101 3103 3104 3104 3105 3106 3107 3108 3109 3110 3110 3111 3112 3112 3113 3114 3115 3115 3116 3116 3117
2994 2996 2998 3001 3003 3005 3007 3009 3011 3013 3015 3018 3020 3023 3026 3029 3032 3035 3038 3041 3044 3047 3049 3052 3054 3056 3059 3061 3063 3065 3067 3069 3072 3074 3076 3079 3080 3082 3084 3086 3088 3089 3091 3093 3094 3095 3097 3098 3099 3100 3101 3102 3103 3104 3105 3106 3106 3107 3108 3109 3109 3110 3111 3112 3112 3113 3114 3114 3114
2990 2992 2995 2997 2999 3001 3003 3005 3007 3009 3011 3014 3017 3019 3023 3026 3029 3031 3034 3038 3041 3044 3046 3049 3051 3053 3055 3058 3060 3062 3064 3067 3069 3071 3074 3076 3078 3080 3082 3084 3085 3087 3089 3090 3092 3093 3094 3095 3096 3097 3098 3099 3100 3101 3102 3103 3104 3105 3105 3106 3107 3108 3109 3109 3110 3111 3111 3111 3112
2986 2989 2991 2993 2995 2997 2999 3001 3003 3005 3008 3010 3013 3016 3019 3022 3025 3028 3031 3034 3037 3040 3042 3045 3047 3050 3052 3054 3057 3059 3062 3064 3066 3069 3071 3073 3075 3077 3079 3081 3083 3085 3086 3088 3089 3090 3091 3093 3094 3095 3096 3097 3098 3099 3099 3100 3101 3102 3103 3104 3104 3105 3106 3107 3108 3108 3109 3109 3109
2982 2985 2987 2989 2991 2994 2995 2997 2999 3002 3004 3007 3010 3013 3015 3019 3022 3025 3028 3030 3034 3036 3039 3042 3044 3047 3049 3051 3054 3057 3059 3061 3064 3066 3068 3070 3072 3074 3076 3079 3080 3082 3084 3085 3087 3088 3089 3090 3091 3092 3093 3094 3095 3096 3097 3098 3099 3099 3100 3101 3102 3103 3104 3104 3105 3105 3106 3106 3107
2979 2981 2984 2986 2988 2990 2992 2994 2996 2999 3001 3004 3006 3009 3012 3015 3018 3022 3024 3028 3031 3034 3037 3039 3042 3044 3047 3049 3052 3054 3056 3058 3061 3063 3065 3068 3070 3072 3074 3076 3078 3079 3081 3083 3084 3085 3086 3087 3088 3089 3090 3092 3093 3094 3094 3095 3096 3097 3098 3099 3099 3100 3101 3102 3102 3103 3103 3104 3104
2974 2977 2979 2982 2984 2986 2988 2990 2993 2995 2997 3000 3003 3006 3009 3012 3016 3019 3023 3026 3029 3031 3034 3037 3039 3042 3044 3047 3049 3051 3054 3056 3058 3061 3063 3065 3068 3069 3072 3074 3075 3077 3078 3079 3081 3082 3083 3084 3085 3086 3088 3089 3090 3091 3092 3093 3094 3094 3095 3096 3097 3098 3098 3099 3099 3099 3100 3100 3101
2971 2973 2976 2978 2980 2983 2985 2987 2989 2992 2994 2997 3000 3003 3007 3010 3014 3017 3020 3023 3026 3028 3031 3034 3036 3039 3041 3044 3046 3049 3051 3053 3056 3058 3061 3063 3065 3067 3069 3071 3073 3074 3075 3077 3078 3079 3080 3081 3082 3083 3084 3086 3087 3088 3089 3090 3090 3091 3092 3093 3094 3094 3095 3095 3096 3096 3097 3098 3098
2967 2969 2972 2974 2977 2979 2981 2984 2986 2989 2991 2994 2997 3001 3004 3008 3011 3014 3017 3020 3023 3026 3029 3031 3034 3036 3039 3041 3044 3046 3049 3051 3053 3056 3058 3060 3062 3064 3066 3068 3070 3071 3072 3073 3074 3075 3076 3078 3079 3080 3081 3083 3084 3085 3086 3086 3087 3088 3089 3090 3090 3091 3091 3092 3093 3093 3094 3094 3095
2964 2966 2969 2971 2973 2976 2978 2981 2983 2986 2989 2992 2995 2999 3002 3005 3009 3012 3014 3018 3021 3024 3026 3029 3032 3034 3037 3039 3042 3044 3046 3049 3051 3053 3055 3058 3060 3062 3064 3065 3067 3068 3069 3070 3071 3072 3073 3074 3075 3077 3078 3079 3081 3082 3083 3083 3084 3085 3086 3086 3087 3088 3088 3089 3089 3090 3091 3091 3091
2961 2963 2965 2968 2970 2973 2975 2978 2981 2984 2987 2990 2993 2997 3000 3004 3007 3010 3013 3016 3018 3021 3023 3025 3028 3031 3034 3036 3039 3041 3044 3046 3048 3050 3053 3055 3057 3059 3061 3062 3064 3065 3066 3066 3067 3068 3069 3070 3072 3073 3075 3077 3078 3079 3079 3080 3081 3082 3082 3083 3084 3084 3085 3086 3086 3087 3087 3088 3088
2958 2960 2963 2965 2968 2970 2973 2976 2979 2982 2985 2988 2992 2995 2999 3002 3005 3007 3010 3013 3015 3018 3020 3023 3025 3028 3030 3033 3035 3038 3041 3043 3046 3048 3050 3052 3054 3056 3058 3059 3060 3061 3062 3063 3064 3065 3066 3067 3069 3070 3072 3074 3074 3075 3076 3077 3077 3078 3079 3079 3080 3081 3082 3083 3083 3084 3084 3084 3085
2955 2958 2960 2963 2966 2968 2971 2974 2977 2980 2984 2987 2990 2994 2997 3000 3003 3005 3008 3010 3013 3015 3018 3021 3024 3026 3028 3031 3034 3036 3038 3041 3043 3045 3047 3049 3051 3053 3054 3055 3056 3057 3058 3059 3060 3061 3062 3064 3066 3068 3069 3070 3071 3072 3072 3073 3074 3074 3075 3076 3077 3078 3079 3079 3080 3080 3081 3081 3082
2953 2956 2959 2961 2964 2967 2969 2973 2976 2979 2982 2986 2989 2992 2995 2998 3001 3003 3006 3008 3011 3013 3016 3019 3021 3024 3026 3029 3031 3034 3036 3038 3040 3042 3044 3046 3048 3049 3050 3051 3052 3053 3054 3055 3056 3057 3059 3061 3063 3065 3066 3067 3068 3068 3069 3069 3070 3071 3072 3073 3074 3074 3075 3076 3076 3077 3077 3078 3078
2951 2954 2957 2959 2962 2965 2968 2971 2974 2978 2981 2984 2988 2991 2993 2996 2999 3001 3004 3006 3009 3011 3014 3016 3019 3021 3024 3026 3028 3030 3033 3035 3037 3039 3040 3042 3044 3045 3046 3047 3047 3048 3050 3051 3053 3054 3056 3058 3060 3062 3063 3063 3064 3064 3065 3066 3067 3067 3068 3069 3070 3071 3071 3072 3073 3074 3074 3074 3075
2950 2952 2955 2958 2960 2963 2966 2969 2973 2976 2979 2983 2985 2988 2991 2994 2996 2998 3000 3003 3005 3008 3010 3013 3015 3018 3020 3023 3025 3027 3029 3031 3033 3035 3036 3038 3039 3040 3041 3042 3043 3044 3046 3047 3049 3051 3053 3055 3057 3058 3059 3059 3059 3060 3061 3062 3063 3064 3064 3065 3066 3067 3068 3069 3069 3070 3070 3071 3071